Change the Weather History Date:

Thursday, March 28, 2013

  Actual Average Record
Temperature  
Mean Temperature 36 °F -  
Max Temperature 39 °F 30 °F 48 °F (2015)
Min Temperature 33 °F 18 °F -2 °F (2008)
Degree Days  
Heating Degree Days 29    
Moisture  
Dew Point 29 °F    
Average Humidity 74    
Maximum Humidity 87    
Minimum Humidity 61    
Precipitation  
Precipitation 0.00 in - - ()
Sea Level Pressure  
Sea Level Pressure 29.54 in    
Wind  
Wind Speed 19 mph (SSE)    
Max Wind Speed 38 mph    
Max Gust Speed 46 mph    
Visibility 10 miles    
Events      
Averages and records for this station are not official NWS values.
T = Trace of Precipitation, MM = Missing Value Source: NWS Daily Summary

Daily Weather History Graph

Daily Weather History Graph

Search for Another Location

Airport or City:

Trip Planner

Search our weather history database for the weather conditions in past years. The results will help you decide how hot, cold, wet, or windy it might be!

Date:

Astronomy

Mar. 28, 2013 Rise Set
Actual Time 8:13 AM AKDT 9:06 PM AKDT
Civil Twilight 7:34 AM AKDT 9:45 PM AKDT
Nautical Twilight 6:47 AM AKDT 10:32 PM AKDT
Astronomical Twilight 5:56 AM AKDT 11:24 PM AKDT
Moon 11:44 PM AKDT (3/28) 8:24 AM AKDT (3/28)
Length of Visible Light 14h 10m
Length of Day
12h 53m
Full, 97% of the Moon is Illuminated
Mar 28
Full
Apr 2
Last Quarter
Apr 10
New
Apr 18
First Quarter
Apr 25
Full

Hourly Weather History & Observations

Time (AKDT) Temp. Windchill Dew Point Humidity Pressure Visibility Wind Dir Wind Speed Gust Speed Precip Events Conditions
12:16 AM 39.2 °F 26.1 °F 28.4 °F 65% 29.61 in 10.0 mi SE 38.0 mph 46.0 mph N/A   Overcast
12:36 AM 39.2 °F 27.0 °F 28.4 °F 65% 29.61 in 10.0 mi SSE 32.2 mph 39.1 mph N/A   Overcast
12:56 AM - - - N/A% 29.60 in 10.0 mi SE 29.9 mph 44.9 mph N/A   Overcast
1:16 AM 39.2 °F 26.5 °F 30.2 °F 70% 29.59 in 10.0 mi SSE 35.7 mph 43.7 mph N/A   Overcast
1:36 AM 39.2 °F 27.6 °F 30.2 °F 70% 29.61 in 10.0 mi SE 28.8 mph 38.0 mph N/A   Overcast
1:56 AM 39.2 °F 27.8 °F 30.2 °F 70% 29.59 in 10.0 mi SSE 27.6 mph 38.0 mph N/A   Overcast
2:16 AM 39.2 °F 26.6 °F 30.2 °F 70% 29.57 in 10.0 mi SSE 34.5 mph 43.7 mph N/A   Overcast
2:36 AM 39.2 °F 27.2 °F 30.2 °F 70% 29.57 in 10.0 mi SSE 31.1 mph 39.1 mph N/A   Overcast
2:56 AM 39.2 °F 29.3 °F 26.6 °F 61% 29.59 in 10.0 mi SSE 20.7 mph 36.8 mph N/A   Overcast
3:16 AM 37.4 °F 26.6 °F 28.4 °F 70% 29.61 in 10.0 mi SE 21.9 mph 28.8 mph N/A   Overcast
3:36 AM 35.6 °F 26.6 °F 28.4 °F 75% 29.61 in 10.0 mi SE 13.8 mph 21.9 mph N/A   Overcast
3:56 AM 35.6 °F 25.5 °F 28.4 °F 75% 29.61 in 10.0 mi SE 17.3 mph 24.2 mph N/A   Overcast
4:16 AM 35.6 °F 25.2 °F 28.4 °F 75% 29.60 in 10.0 mi SE 18.4 mph - N/A   Overcast
4:36 AM 35.6 °F 25.2 °F 28.4 °F 75% 29.59 in 10.0 mi SE 18.4 mph - N/A   Overcast
4:56 AM 35.6 °F 24.5 °F 28.4 °F 75% 29.59 in 10.0 mi SE 20.7 mph 24.2 mph N/A   Overcast
5:16 AM 35.6 °F 24.8 °F 28.4 °F 75% 29.58 in 10.0 mi SE 19.6 mph - N/A   Overcast
5:36 AM 35.6 °F 25.2 °F 26.6 °F 70% 29.58 in 10.0 mi SE 18.4 mph 26.5 mph N/A   Overcast
5:56 AM 35.6 °F 25.5 °F 28.4 °F 75% 29.57 in 10.0 mi SE 17.3 mph - N/A   Overcast
6:16 AM 35.6 °F 25.9 °F 28.4 °F 75% 29.57 in 10.0 mi SE 16.1 mph - N/A   Overcast
6:36 AM 35.6 °F 26.2 °F 26.6 °F 70% 29.56 in 10.0 mi SE 15.0 mph - N/A   Overcast
6:56 AM 35.6 °F 25.9 °F 26.6 °F 70% 29.55 in 10.0 mi SE 16.1 mph - N/A   Mostly Cloudy
7:16 AM 35.6 °F 25.5 °F 28.4 °F 75% 29.54 in 10.0 mi SE 17.3 mph - N/A   Overcast
7:36 AM 35.6 °F 25.9 °F 28.4 °F 75% 29.54 in 10.0 mi SE 16.1 mph - N/A   Overcast
7:56 AM 35.6 °F 24.5 °F 28.4 °F 75% 29.53 in 10.0 mi SE 20.7 mph - N/A   Overcast
8:16 AM 35.6 °F 25.5 °F 28.4 °F 75% 29.53 in 10.0 mi SE 17.3 mph - N/A   Overcast
8:36 AM 35.6 °F 26.2 °F 28.4 °F 75% 29.52 in 10.0 mi SE 15.0 mph - N/A   Overcast
8:56 AM 35.6 °F 26.6 °F 28.4 °F 75% 29.52 in 10.0 mi SE 13.8 mph - N/A   Overcast
9:16 AM 35.6 °F 27.1 °F 30.2 °F 81% 29.51 in 10.0 mi SE 12.7 mph - N/A   Overcast
9:36 AM 35.6 °F 27.5 °F 28.4 °F 75% 29.51 in 10.0 mi SE 11.5 mph - N/A   Overcast
9:56 AM 37.4 °F 29.8 °F 28.4 °F 70% 29.51 in 10.0 mi SE 11.5 mph - N/A   Overcast
10:16 AM 37.4 °F 30.8 °F 28.4 °F 70% 29.51 in 10.0 mi SSE 9.2 mph - N/A   Overcast
10:36 AM 37.4 °F 29.8 °F 28.4 °F 70% 29.51 in 10.0 mi SSE 11.5 mph - N/A   Mostly Cloudy
10:56 AM 37.4 °F 29.3 °F 28.4 °F 70% 29.52 in 10.0 mi SSE 12.7 mph 17.3 mph N/A   Overcast
11:16 AM 35.6 °F 26.2 °F 28.4 °F 75% 29.51 in 10.0 mi SE 15.0 mph - N/A   Overcast
11:36 AM 35.6 °F 27.5 °F 28.4 °F 75% 29.51 in 10.0 mi SE 11.5 mph - N/A   Mostly Cloudy
11:56 AM 37.4 °F 29.3 °F 28.4 °F 70% 29.51 in 10.0 mi SE 12.7 mph - N/A   Overcast
12:16 PM 37.4 °F 28.9 °F 30.2 °F 75% 29.50 in 10.0 mi SE 13.8 mph - N/A   Overcast
12:36 PM 37.4 °F 29.3 °F 28.4 °F 70% 29.50 in 10.0 mi SE 12.7 mph - N/A   Overcast
12:56 PM 37.4 °F 28.9 °F 30.2 °F 75% 29.50 in 10.0 mi ESE 13.8 mph - N/A   Overcast
1:16 PM 37.4 °F 30.8 °F 30.2 °F 75% 29.49 in 10.0 mi East 9.2 mph - N/A   Overcast
1:36 PM 37.4 °F 30.8 °F 32.0 °F 81% 29.50 in 10.0 mi East 9.2 mph - N/A   Overcast
1:56 PM 37.4 °F 31.4 °F 30.2 °F 75% 29.50 in 10.0 mi East 8.1 mph - N/A   Overcast
2:16 PM 37.4 °F 33.8 °F 30.2 °F 75% 29.50 in 10.0 mi ESE 4.6 mph - N/A   Overcast
2:36 PM 37.4 °F 30.8 °F 30.2 °F 75% 29.50 in 10.0 mi SSE 9.2 mph - N/A   Overcast
2:56 PM 37.4 °F 30.3 °F 30.2 °F 75% 29.50 in 10.0 mi South 10.4 mph - N/A   Overcast
3:16 PM 37.4 °F 30.8 °F 30.2 °F 75% 29.49 in 10.0 mi South 9.2 mph - N/A   Overcast
3:36 PM 37.4 °F 32.1 °F 32.0 °F 81% 29.49 in 10.0 mi SSE 6.9 mph - N/A   Overcast
3:56 PM 37.4 °F 32.1 °F 30.2 °F 75% 29.49 in 10.0 mi South 6.9 mph - N/A   Overcast
4:16 PM 37.4 °F 32.8 °F 30.2 °F 75% 29.49 in 10.0 mi SW 5.8 mph - N/A   Overcast
4:36 PM 37.4 °F 32.1 °F 28.4 °F 70% 29.49 in 10.0 mi SW 6.9 mph - N/A   Overcast
4:56 PM 37.4 °F 32.1 °F 30.2 °F 75% 29.48 in 10.0 mi SSW 6.9 mph - N/A   Overcast
5:16 PM 39.2 °F 34.2 °F 30.2 °F 70% 29.48 in 10.0 mi West 6.9 mph - N/A   Overcast
5:36 PM 37.4 °F 31.4 °F 30.2 °F 75% 29.48 in 10.0 mi SW 8.1 mph - N/A   Overcast
5:56 PM 37.4 °F 32.1 °F 30.2 °F 75% 29.49 in 10.0 mi SW 6.9 mph - N/A   Overcast
6:16 PM 39.2 °F 33.6 °F 32.0 °F 75% 29.50 in 10.0 mi SSW 8.1 mph - N/A   Overcast
6:36 PM 37.4 °F 30.8 °F 30.2 °F 75% 29.49 in 10.0 mi SW 9.2 mph - N/A   Partly Cloudy
6:56 PM 37.4 °F 31.4 °F 28.4 °F 70% 29.49 in 10.0 mi SW 8.1 mph - N/A   Clear
7:16 PM 35.6 °F 28.6 °F 28.4 °F 75% 29.50 in 10.0 mi SW 9.2 mph - N/A   Clear
7:36 PM 33.8 °F 27.7 °F 30.2 °F 87% 29.52 in 10.0 mi WSW 6.9 mph - N/A   Mostly Cloudy
7:56 PM 35.6 °F 31.7 °F 30.2 °F 81% 29.52 in 10.0 mi WSW 4.6 mph - N/A   Overcast
8:16 PM 35.6 °F 31.7 °F 28.4 °F 75% 29.52 in 10.0 mi WSW 4.6 mph - N/A   Mostly Cloudy
8:36 PM 33.8 °F 30.8 °F 28.4 °F 81% 29.53 in 10.0 mi South 3.5 mph - N/A   Scattered Clouds
8:56 PM 33.8 °F 29.6 °F 28.4 °F 81% 29.54 in 10.0 mi ESE 4.6 mph - N/A   Clear
9:16 PM 33.8 °F - 26.6 °F 75% 29.54 in 10.0 mi Calm Calm - N/A   Clear
9:36 PM 33.8 °F 30.8 °F 28.4 °F 81% 29.53 in 10.0 mi SSE 3.5 mph - N/A   Clear
9:56 PM 33.8 °F - 28.4 °F 81% 29.54 in 10.0 mi Calm Calm - N/A   Mostly Cloudy
10:16 PM 33.8 °F - 28.4 °F 81% 29.55 in 10.0 mi Calm Calm - N/A   Overcast
10:36 PM 33.8 °F 30.8 °F 28.4 °F 81% 29.56 in 10.0 mi SSE 3.5 mph - N/A   Overcast
10:56 PM 33.8 °F 30.8 °F 28.4 °F 81% 29.56 in 10.0 mi East 3.5 mph - N/A   Overcast
11:16 PM 33.8 °F - 28.4 °F 81% 29.56 in 10.0 mi Calm Calm - N/A   Overcast
11:36 PM 33.8 °F - 28.4 °F 81% 29.56 in 10.0 mi Calm Calm - N/A   Overcast
11:56 PM 33.8 °F 30.8 °F 26.6 °F 75% 29.57 in 10.0 mi ESE 3.5 mph - N/A   Scattered Clouds